Time,TemperatureF,DewpointF,PressureIn,WindDirection,WindDirectionDegrees,WindSpeedMPH,WindSpeedGustMPH,Humidity,HourlyPrecipIn,Conditions,Clouds,dailyrainin,SoftwareType,DateUTC
2014-01-01 00:01:00,44.5,37.8,30.35,NW,323,4.0,5.0,77,0.00,,---,0.00,VWS V14.01,2014-01-01 05:01:00,
2014-01-01 00:02:00,44.4,38.0,30.35,NW,323,4.0,5.0,78,0.00,,---,0.00,VWS V14.01,2014-01-01 05:02:00,
2014-01-01 00:05:00,44.3,37.6,30.36,NW,323,3.0,5.0,77,0.00,,---,0.00,VWS V14.01,2014-01-01 05:05:00,
2014-01-01 00:10:00,44.2,37.5,30.36,NW,323,4.0,5.0,77,0.00,,---,0.00,VWS V14.01,2014-01-01 05:10:00,
2014-01-01 00:15:00,44.1,37.7,30.36,NW,323,4.0,5.0,78,0.00,,---,0.00,VWS V14.01,2014-01-01 05:15:00,
2014-01-01 00:20:00,44.1,37.4,30.36,NW,323,4.0,5.0,77,0.00,,---,0.00,VWS V14.01,2014-01-01 05:20:00,
2014-01-01 00:25:00,44.0,37.3,30.36,NW,323,3.0,5.0,77,0.00,,---,0.00,VWS V14.01,2014-01-01 05:25:00,
2014-01-01 00:30:00,44.1,37.4,30.36,NW,323,3.0,4.0,77,0.00,,---,0.00,VWS V14.01,2014-01-01 05:30:00,
2014-01-01 00:35:00,44.0,37.3,30.36,NW,324,4.0,5.0,77,0.00,,---,0.00,VWS V14.01,2014-01-01 05:35:00,
2014-01-01 00:41:00,43.9,37.5,30.35,NW,323,3.0,5.0,78,0.00,,---,0.00,VWS V14.01,2014-01-01 05:41:00,
2014-01-01 00:46:00,43.8,37.1,30.35,NW,323,4.0,5.0,77,0.00,,---,0.00,VWS V14.01,2014-01-01 05:46:00,
2014-01-01 00:51:00,43.8,37.7,30.35,NW,323,3.0,5.0,79,0.00,,---,0.00,VWS V14.01,2014-01-01 05:51:00,
2014-01-01 00:56:00,43.8,37.1,30.36,NW,323,3.0,5.0,77,0.00,,---,0.00,VWS V14.01,2014-01-01 05:56:00,
2014-01-01 01:02:00,43.8,37.4,30.35,NW,323,2.0,4.0,78,0.00,,---,0.00,VWS V14.01,2014-01-01 06:02:00,
2014-01-01 01:07:00,43.7,37.3,30.35,NW,323,4.0,5.0,78,0.00,,---,0.00,VWS V14.01,2014-01-01 06:07:00,
2014-01-01 01:12:00,43.6,37.2,30.35,NW,324,2.0,5.0,78,0.00,,---,0.00,VWS V14.01,2014-01-01 06:12:00,
2014-01-01 01:16:00,43.5,37.4,30.35,NW,324,3.0,5.0,79,0.00,,---,0.00,VWS V14.01,2014-01-01 06:16:00,
2014-01-01 01:22:00,43.4,37.3,30.35,NW,324,2.0,5.0,79,0.00,,---,0.00,VWS V14.01,2014-01-01 06:22:00,
2014-01-01 01:27:00,43.5,37.4,30.35,NW,324,2.0,5.0,79,0.00,,---,0.00,VWS V14.01,2014-01-01 06:27:00,
2014-01-01 01:32:00,43.6,37.2,30.36,NW,321,3.0,5.0,78,0.00,,---,0.00,VWS V14.01,2014-01-01 06:32:00,
2014-01-01 01:37:00,43.7,37.0,30.36,NW,318,4.0,5.0,77,0.00,,---,0.00,VWS V14.01,2014-01-01 06:37:00,
2014-01-01 01:42:00,43.6,37.8,30.36,NW,313,4.0,5.0,80,0.00,,---,0.00,VWS V14.01,2014-01-01 06:42:00,
2014-01-01 01:47:00,43.4,37.7,30.37,NW,312,3.0,5.0,80,0.00,,---,0.00,VWS V14.01,2014-01-01 06:47:00,
2014-01-01 01:52:00,43.2,38.1,30.37,NW,311,4.0,5.0,82,0.00,,---,0.00,VWS V14.01,2014-01-01 06:52:00,
2014-01-01 01:56:00,43.2,38.4,30.36,NW,308,3.0,5.0,83,0.00,,---,0.00,VWS V14.01,2014-01-01 06:56:00,
2014-01-01 02:01:00,43.2,39.0,30.36,NW,308,4.0,4.0,85,0.00,,---,0.00,VWS V14.01,2014-01-01 07:01:00,
2014-01-01 02:06:00,42.9,38.7,30.36,NW,308,5.0,5.0,85,0.00,,---,0.00,VWS V14.01,2014-01-01 07:06:00,
2014-01-01 02:11:00,42.6,39.0,30.36,NW,308,3.0,5.0,87,0.00,,---,0.00,VWS V14.01,2014-01-01 07:11:00,
2014-01-01 02:16:00,42.3,37.8,30.36,NW,308,4.0,5.0,84,0.00,,---,0.00,VWS V14.01,2014-01-01 07:16:00,
2014-01-01 02:21:00,42.1,37.9,30.36,NW,308,3.0,5.0,85,0.00,,---,0.00,VWS V14.01,2014-01-01 07:21:00,
2014-01-01 02:23:00,42.1,37.9,30.36,NW,308,2.0,5.0,85,0.00,,---,0.00,VWS V14.01,2014-01-01 07:23:00,
2014-01-01 02:28:00,42.1,37.6,30.36,NW,309,3.0,4.0,84,0.00,,---,0.00,VWS V14.01,2014-01-01 07:28:00,
2014-01-01 02:33:00,41.9,37.4,30.36,NW,325,3.0,5.0,84,0.00,,---,0.00,VWS V14.01,2014-01-01 07:33:00,
2014-01-01 02:38:00,41.7,36.9,30.37,NW,325,2.0,5.0,83,0.00,,---,0.00,VWS V14.01,2014-01-01 07:38:00,
2014-01-01 02:43:00,41.6,36.8,30.37,NW,325,3.0,5.0,83,0.00,,---,0.00,VWS V14.01,2014-01-01 07:43:00,
2014-01-01 02:48:00,41.7,36.9,30.38,NW,315,5.0,5.0,83,0.00,,---,0.00,VWS V14.01,2014-01-01 07:48:00,
2014-01-01 02:53:00,41.6,36.8,30.38,NNW,327,5.0,6.0,83,0.00,,---,0.00,VWS V14.01,2014-01-01 07:53:00,
2014-01-01 02:58:00,41.6,36.8,30.38,NNW,327,3.0,4.0,83,0.00,,---,0.00,VWS V14.01,2014-01-01 07:58:00,
2014-01-01 03:00:00,41.6,36.8,30.38,NNW,327,2.0,4.0,83,0.00,,---,0.00,VWS V14.01,2014-01-01 08:00:00,
2014-01-01 03:05:00,41.6,36.5,30.38,NNW,329,3.0,4.0,82,0.00,,---,0.00,VWS V14.01,2014-01-01 08:05:00,
2014-01-01 03:10:00,41.6,36.8,30.38,NNW,331,4.0,5.0,83,0.00,,---,0.00,VWS V14.01,2014-01-01 08:10:00,
2014-01-01 03:15:00,41.7,36.9,30.38,NNW,329,4.0,5.0,83,0.00,,---,0.00,VWS V14.01,2014-01-01 08:15:00,
2014-01-01 03:20:00,41.9,36.8,30.38,NNW,329,4.0,5.0,82,0.00,,---,0.00,VWS V14.01,2014-01-01 08:20:00,
2014-01-01 03:25:00,42.0,36.6,30.37,NNW,329,5.0,5.0,81,0.00,,---,0.00,VWS V14.01,2014-01-01 08:25:00,
2014-01-01 03:30:00,42.0,36.6,30.38,NNW,329,2.0,4.0,81,0.00,,---,0.00,VWS V14.01,2014-01-01 08:30:00,
2014-01-01 03:31:00,42.1,36.7,30.38,NNW,329,3.0,4.0,81,0.00,,---,0.00,VWS V14.01,2014-01-01 08:31:00,
2014-01-01 03:36:00,42.0,36.3,30.37,NNW,331,4.0,5.0,80,0.00,,---,0.00,VWS V14.01,2014-01-01 08:36:00,
2014-01-01 03:41:00,42.0,36.3,30.37,NNW,331,4.0,5.0,80,0.00,,---,0.00,VWS V14.01,2014-01-01 08:41:00,
2014-01-01 03:46:00,42.0,36.3,30.37,NNW,331,4.0,5.0,80,0.00,,---,0.00,VWS V14.01,2014-01-01 08:46:00,
2014-01-01 03:51:00,42.0,36.3,30.37,NNW,336,5.0,6.0,80,0.00,,---,0.00,VWS V14.01,2014-01-01 08:51:00,
2014-01-01 03:56:00,42.0,36.3,30.37,NNW,333,4.0,6.0,80,0.00,,---,0.00,VWS V14.01,2014-01-01 08:56:00,
2014-01-01 04:01:00,42.0,36.0,30.37,NNW,333,4.0,5.0,79,0.00,,---,0.00,VWS V14.01,2014-01-01 09:01:00,
2014-01-01 04:06:00,42.1,36.7,30.37,NNW,333,4.0,5.0,81,0.00,,---,0.00,VWS V14.01,2014-01-01 09:06:00,
2014-01-01 04:11:00,42.2,36.2,30.37,NNW,340,4.0,6.0,79,0.00,,---,0.00,VWS V14.01,2014-01-01 09:11:00,
2014-01-01 04:16:00,42.3,36.9,30.37,North,5,5.0,6.0,81,0.00,,---,0.00,VWS V14.01,2014-01-01 09:16:00,
2014-01-01 04:22:00,42.4,37.0,30.36,North,360,6.0,7.0,81,0.00,,---,0.00,VWS V14.01,2014-01-01 09:22:00,
2014-01-01 04:27:00,42.4,37.3,30.36,North,349,5.0,7.0,82,0.00,,---,0.00,VWS V14.01,2014-01-01 09:27:00,
2014-01-01 04:32:00,42.5,37.7,30.37,North,355,5.0,6.0,83,0.00,,---,0.00,VWS V14.01,2014-01-01 09:32:00,
2014-01-01 04:37:00,42.3,36.9,30.36,North,5,5.0,7.0,81,0.00,,---,0.00,VWS V14.01,2014-01-01 09:37:00,
2014-01-01 04:42:00,42.3,36.9,30.36,NNE,13,6.0,7.0,81,0.00,,---,0.00,VWS V14.01,2014-01-01 09:42:00,
2014-01-01 04:47:00,42.1,36.4,30.36,North,5,6.0,9.0,80,0.00,,---,0.00,VWS V14.01,2014-01-01 09:47:00,
2014-01-01 04:52:00,42.3,36.9,30.36,North,5,6.0,9.0,81,0.00,,---,0.00,VWS V14.01,2014-01-01 09:52:00,
2014-01-01 04:57:00,42.4,36.7,30.36,NNE,13,3.0,5.0,80,0.00,,---,0.00,VWS V14.01,2014-01-01 09:57:00,
2014-01-01 05:02:00,42.7,37.3,30.35,NNE,28,5.0,7.0,81,0.00,,---,0.00,VWS V14.01,2014-01-01 10:02:00,
2014-01-01 05:07:00,42.4,36.4,30.35,NNE,26,7.0,9.0,79,0.00,,---,0.00,VWS V14.01,2014-01-01 10:07:00,
2014-01-01 05:12:00,42.2,36.5,30.35,NNE,28,6.0,9.0,80,0.00,,---,0.00,VWS V14.01,2014-01-01 10:12:00,
2014-01-01 05:17:00,42.5,37.4,30.35,NNE,28,5.0,9.0,82,0.00,,---,0.00,VWS V14.01,2014-01-01 10:17:00,
2014-01-01 05:22:00,42.6,37.5,30.36,NE,36,5.0,9.0,82,0.00,,---,0.00,VWS V14.01,2014-01-01 10:22:00,
2014-01-01 05:28:00,42.6,37.5,30.36,NE,34,5.0,6.0,82,0.00,,---,0.00,VWS V14.01,2014-01-01 10:28:00,
2014-01-01 05:33:00,42.5,37.1,30.37,NNE,16,5.0,6.0,81,0.00,,---,0.00,VWS V14.01,2014-01-01 10:33:00,
2014-01-01 05:38:00,42.3,36.3,30.37,North,11,5.0,6.0,79,0.00,,---,0.00,VWS V14.01,2014-01-01 10:38:00,
2014-01-01 05:43:00,42.1,35.8,30.38,NNE,33,3.0,7.0,78,0.00,,---,0.00,VWS V14.01,2014-01-01 10:43:00,
2014-01-01 05:48:00,42.2,36.2,30.37,NE,36,8.0,10.0,79,0.00,,---,0.00,VWS V14.01,2014-01-01 10:48:00,
2014-01-01 05:53:00,42.3,36.6,30.37,NNE,18,9.0,10.0,80,0.00,,---,0.00,VWS V14.01,2014-01-01 10:53:00,
2014-01-01 05:58:00,42.3,36.3,30.38,NNE,24,6.0,7.0,79,0.00,,---,0.00,VWS V14.01,2014-01-01 10:58:00,
2014-01-01 06:03:00,42.4,36.7,30.38,NNE,30,9.0,9.0,80,0.00,,---,0.00,VWS V14.01,2014-01-01 11:03:00,
2014-01-01 06:08:00,42.6,36.5,30.38,NE,40,7.0,9.0,79,0.00,,---,0.00,VWS V14.01,2014-01-01 11:08:00,
2014-01-01 06:13:00,42.5,36.1,30.38,NE,34,6.0,10.0,78,0.00,,---,0.00,VWS V14.01,2014-01-01 11:13:00,
2014-01-01 06:18:00,42.6,36.2,30.38,NE,46,6.0,10.0,78,0.00,,---,0.00,VWS V14.01,2014-01-01 11:18:00,
2014-01-01 06:23:00,42.6,35.6,30.38,NE,46,8.0,11.0,76,0.00,,---,0.00,VWS V14.01,2014-01-01 11:23:00,
2014-01-01 06:29:00,42.5,35.5,30.38,NE,51,7.0,11.0,76,0.00,,---,0.00,VWS V14.01,2014-01-01 11:29:00,
2014-01-01 06:34:00,42.4,36.0,30.38,NE,51,7.0,11.0,78,0.00,,---,0.00,VWS V14.01,2014-01-01 11:34:00,
2014-01-01 06:39:00,42.6,36.2,30.37,NE,53,6.0,11.0,78,0.00,,---,0.00,VWS V14.01,2014-01-01 11:39:00,
2014-01-01 06:44:00,42.9,35.9,30.37,ENE,58,9.0,11.0,76,0.00,,---,0.00,VWS V14.01,2014-01-01 11:44:00,
2014-01-01 06:49:00,43.4,36.0,30.38,East,79,7.0,11.0,75,0.00,,---,0.00,VWS V14.01,2014-01-01 11:49:00,
2014-01-01 06:54:00,43.7,36.6,30.38,East,84,5.0,11.0,76,0.00,,---,0.00,VWS V14.01,2014-01-01 11:54:00,
2014-01-01 06:59:00,44.0,36.6,30.38,NE,48,9.0,10.0,75,0.00,,---,0.00,VWS V14.01,2014-01-01 11:59:00,
2014-01-01 07:04:00,43.8,36.1,30.38,NE,50,6.0,10.0,74,0.00,,---,0.00,VWS V14.01,2014-01-01 12:04:00,
2014-01-01 07:09:00,43.8,36.7,30.38,ENE,78,5.0,10.0,76,0.00,,---,0.00,VWS V14.01,2014-01-01 12:09:00,
2014-01-01 07:14:00,43.7,36.0,30.38,ENE,58,6.0,10.0,74,0.00,,---,0.00,VWS V14.01,2014-01-01 12:14:00,
2014-01-01 07:19:00,43.7,36.6,30.39,NE,54,5.0,10.0,76,0.00,,---,0.00,VWS V14.01,2014-01-01 12:19:00,
2014-01-01 07:24:00,43.4,36.0,30.39,NE,55,8.0,11.0,75,0.00,,---,0.00,VWS V14.01,2014-01-01 12:24:00,
2014-01-01 07:29:00,43.1,35.4,30.40,NE,47,12.0,12.0,74,0.00,,---,0.00,VWS V14.01,2014-01-01 12:29:00,
2014-01-01 07:34:00,43.0,35.3,30.39,ENE,63,8.0,12.0,74,0.00,,---,0.00,VWS V14.01,2014-01-01 12:34:00,
2014-01-01 07:40:00,42.9,35.9,30.39,NE,45,8.0,12.0,76,0.00,,---,0.00,VWS V14.01,2014-01-01 12:40:00,
2014-01-01 07:45:00,42.8,36.1,30.39,NE,53,7.0,12.0,77,0.00,,---,0.00,VWS V14.01,2014-01-01 12:45:00,
2014-01-01 07:50:00,43.1,35.7,30.39,East,82,6.0,12.0,75,0.00,,---,0.00,VWS V14.01,2014-01-01 12:50:00,
2014-01-01 07:55:00,43.3,36.6,30.39,East,90,6.0,12.0,77,0.00,,---,0.00,VWS V14.01,2014-01-01 12:55:00,
2014-01-01 08:00:00,43.4,35.3,30.39,ENE,66,10.0,10.0,73,0.00,,---,0.00,VWS V14.01,2014-01-01 13:00:00,
2014-01-01 08:05:00,43.5,34.0,30.39,East,80,4.0,10.0,69,0.00,,---,0.00,VWS V14.01,2014-01-01 13:05:00,
2014-01-01 08:10:00,43.5,34.4,30.39,East,90,6.0,10.0,70,0.00,,---,0.00,VWS V14.01,2014-01-01 13:10:00,
2014-01-01 08:15:00,43.7,34.2,30.39,East,82,6.0,11.0,69,0.00,,---,0.00,VWS V14.01,2014-01-01 13:15:00,
2014-01-01 08:20:00,43.7,33.8,30.39,East,88,9.0,11.0,68,0.00,,---,0.00,VWS V14.01,2014-01-01 13:20:00,
2014-01-01 08:25:00,43.9,34.0,30.39,ENE,75,5.0,11.0,68,0.00,,---,0.00,VWS V14.01,2014-01-01 13:25:00,
2014-01-01 08:30:00,44.1,34.6,30.40,East,86,6.0,9.0,69,0.00,,---,0.00,VWS V14.01,2014-01-01 13:30:00,
2014-01-01 08:35:00,44.3,35.2,30.40,East,82,4.0,9.0,70,0.00,,---,0.00,VWS V14.01,2014-01-01 13:35:00,
2014-01-01 08:40:00,44.5,35.7,30.40,East,85,5.0,9.0,71,0.00,,---,0.00,VWS V14.01,2014-01-01 13:40:00,
2014-01-01 08:45:00,44.6,35.8,30.40,ENE,78,5.0,9.0,71,0.00,,---,0.00,VWS V14.01,2014-01-01 13:45:00,
2014-01-01 08:51:00,44.7,35.9,30.40,ENE,71,4.0,9.0,71,0.00,,---,0.00,VWS V14.01,2014-01-01 13:51:00,
2014-01-01 08:56:00,45.0,37.2,30.40,ENE,76,6.0,9.0,74,0.00,,---,0.00,VWS V14.01,2014-01-01 13:56:00,
2014-01-01 09:01:00,45.3,37.2,30.41,East,81,6.0,10.0,73,0.00,,---,0.00,VWS V14.01,2014-01-01 14:01:00,
2014-01-01 09:06:00,45.5,38.0,30.41,ENE,71,6.0,10.0,75,0.00,,---,0.00,VWS V14.01,2014-01-01 14:06:00,
2014-01-01 09:11:00,45.8,38.3,30.41,ENE,70,5.0,10.0,75,0.00,,---,0.00,VWS V14.01,2014-01-01 14:11:00,
2014-01-01 09:16:00,45.8,38.3,30.41,ENE,75,5.0,10.0,75,0.00,,---,0.00,VWS V14.01,2014-01-01 14:16:00,
2014-01-01 09:21:00,46.0,38.5,30.41,NE,46,6.0,10.0,75,0.00,,---,0.00,VWS V14.01,2014-01-01 14:21:00,
2014-01-01 09:26:00,46.1,38.6,30.41,ENE,78,7.0,10.0,75,0.00,,---,0.00,VWS V14.01,2014-01-01 14:26:00,
2014-01-01 09:31:00,46.4,39.6,30.41,ENE,59,7.0,10.0,77,0.00,,---,0.00,VWS V14.01,2014-01-01 14:31:00,
2014-01-01 09:36:00,46.4,39.6,30.41,NE,55,5.0,10.0,77,0.00,,---,0.00,VWS V14.01,2014-01-01 14:36:00,
2014-01-01 09:41:00,46.4,39.3,30.42,ENE,73,3.0,10.0,76,0.00,,---,0.00,VWS V14.01,2014-01-01 14:41:00,
2014-01-01 09:46:00,46.4,39.6,30.42,ENE,63,3.0,10.0,77,0.00,,---,0.00,VWS V14.01,2014-01-01 14:46:00,
2014-01-01 09:51:00,46.5,39.7,30.42,East,82,5.0,10.0,77,0.00,,---,0.00,VWS V14.01,2014-01-01 14:51:00,
2014-01-01 09:57:00,46.6,40.1,30.41,ENE,71,6.0,10.0,78,0.00,,---,0.00,VWS V14.01,2014-01-01 14:57:00,
2014-01-01 10:02:00,46.7,40.2,30.41,East,85,4.0,9.0,78,0.00,,---,0.00,VWS V14.01,2014-01-01 15:02:00,
2014-01-01 10:07:00,46.8,40.3,30.41,ENE,71,3.0,9.0,78,0.00,,---,0.00,VWS V14.01,2014-01-01 15:07:00,
2014-01-01 10:12:00,47.0,40.2,30.41,East,88,4.0,9.0,77,0.00,,---,0.00,VWS V14.01,2014-01-01 15:12:00,
2014-01-01 10:17:00,47.2,40.4,30.41,ENE,60,3.0,9.0,77,0.00,,---,0.00,VWS V14.01,2014-01-01 15:17:00,
2014-01-01 10:22:00,47.3,40.5,30.41,East,79,3.0,9.0,77,0.00,,---,0.00,VWS V14.01,2014-01-01 15:22:00,
2014-01-01 10:27:00,47.5,41.3,30.41,ENE,60,7.0,7.0,79,0.00,,---,0.00,VWS V14.01,2014-01-01 15:27:00,
2014-01-01 10:32:00,47.4,41.2,30.41,ENE,57,6.0,9.0,79,0.00,,---,0.00,VWS V14.01,2014-01-01 15:32:00,
2014-01-01 10:37:00,47.4,41.2,30.41,ENE,57,4.0,9.0,79,0.00,,---,0.00,VWS V14.01,2014-01-01 15:37:00,
2014-01-01 10:42:00,47.6,41.4,30.41,ENE,75,7.0,12.0,79,0.00,,---,0.00,VWS V14.01,2014-01-01 15:42:00,
2014-01-01 10:47:00,47.6,41.4,30.41,ENE,74,6.0,12.0,79,0.00,,---,0.00,VWS V14.01,2014-01-01 15:47:00,
2014-01-01 10:52:00,47.6,41.4,30.41,ENE,58,7.0,12.0,79,0.00,,---,0.00,VWS V14.01,2014-01-01 15:52:00,
2014-01-01 10:57:00,47.7,41.5,30.40,ENE,71,5.0,9.0,79,0.00,,---,0.00,VWS V14.01,2014-01-01 15:57:00,
2014-01-01 11:03:00,47.8,41.6,30.40,ENE,62,7.0,10.0,79,0.00,,---,0.00,VWS V14.01,2014-01-01 16:03:00,
2014-01-01 11:08:00,47.9,41.4,30.40,ESE,102,7.0,10.0,78,0.00,,---,0.00,VWS V14.01,2014-01-01 16:08:00,
2014-01-01 11:13:00,47.9,41.4,30.39,East,82,6.0,11.0,78,0.00,,---,0.00,VWS V14.01,2014-01-01 16:13:00,
2014-01-01 11:18:00,48.2,41.3,30.39,East,89,6.0,11.0,77,0.00,,---,0.00,VWS V14.01,2014-01-01 16:18:00,
2014-01-01 11:23:00,48.3,41.4,30.39,East,88,5.0,11.0,77,0.00,,---,0.00,VWS V14.01,2014-01-01 16:23:00,
2014-01-01 11:28:00,48.6,42.1,30.38,East,82,5.0,7.0,78,0.00,,---,0.00,VWS V14.01,2014-01-01 16:28:00,
2014-01-01 11:33:00,48.8,41.9,30.38,ENE,76,4.0,9.0,77,0.00,,---,0.00,VWS V14.01,2014-01-01 16:33:00,
2014-01-01 11:38:00,49.1,42.5,30.37,NE,53,9.0,12.0,78,0.00,,---,0.00,VWS V14.01,2014-01-01 16:38:00,
2014-01-01 11:43:00,49.3,42.7,30.37,ENE,61,5.0,12.0,78,0.00,,---,0.00,VWS V14.01,2014-01-01 16:43:00,
2014-01-01 11:48:00,49.4,42.5,30.37,ENE,63,7.0,12.0,77,0.00,,---,0.00,VWS V14.01,2014-01-01 16:48:00,
2014-01-01 11:53:00,49.5,43.3,30.36,ENE,68,10.0,12.0,79,0.00,,---,0.00,VWS V14.01,2014-01-01 16:53:00,
2014-01-01 11:58:00,49.4,42.5,30.36,NE,41,10.0,11.0,77,0.00,,---,0.00,VWS V14.01,2014-01-01 16:58:00,
2014-01-01 12:03:00,49.2,42.3,30.35,ENE,66,9.0,12.0,77,0.00,,---,0.00,VWS V14.01,2014-01-01 17:03:00,
2014-01-01 12:09:00,49.3,42.4,30.34,ENE,66,9.0,12.0,77,0.00,,---,0.00,VWS V14.01,2014-01-01 17:09:00,
2014-01-01 12:14:00,49.4,41.5,30.34,East,81,7.0,12.0,74,0.00,,---,0.00,VWS V14.01,2014-01-01 17:14:00,
2014-01-01 12:19:00,49.7,41.4,30.33,ESE,109,9.0,14.0,73,0.00,,---,0.00,VWS V14.01,2014-01-01 17:19:00,
2014-01-01 12:24:00,50.0,41.3,30.33,ESE,103,11.0,14.0,72,0.00,,---,0.00,VWS V14.01,2014-01-01 17:24:00,
2014-01-01 12:29:00,50.3,41.6,30.33,ESE,103,14.0,17.0,72,0.00,,---,0.00,VWS V14.01,2014-01-01 17:29:00,
2014-01-01 12:34:00,50.4,41.7,30.33,ESE,111,11.0,17.0,72,0.00,,---,0.00,VWS V14.01,2014-01-01 17:34:00,
2014-01-01 12:39:00,50.6,41.9,30.33,East,94,6.0,17.0,72,0.00,,---,0.00,VWS V14.01,2014-01-01 17:39:00,
2014-01-01 12:44:00,50.6,41.9,30.32,East,94,6.0,17.0,72,0.00,,---,0.00,VWS V14.01,2014-01-01 17:44:00,
2014-01-01 12:49:00,50.9,42.2,30.32,ESE,104,9.0,17.0,72,0.00,,---,0.00,VWS V14.01,2014-01-01 17:49:00,
2014-01-01 12:54:00,51.0,41.9,30.31,ESE,110,6.0,17.0,71,0.00,,---,0.00,VWS V14.01,2014-01-01 17:54:00,
2014-01-01 12:59:00,51.0,42.3,30.31,ENE,69,5.0,12.0,72,0.00,,---,0.00,VWS V14.01,2014-01-01 17:59:00,
2014-01-01 13:04:00,51.0,41.6,30.31,East,86,10.0,12.0,70,0.00,,---,0.00,VWS V14.01,2014-01-01 18:04:00,
2014-01-01 13:10:00,50.8,41.8,30.31,ENE,73,6.0,12.0,71,0.00,,---,0.00,VWS V14.01,2014-01-01 18:10:00,
2014-01-01 13:15:00,50.9,41.1,30.32,East,101,5.0,12.0,69,0.00,,---,0.00,VWS V14.01,2014-01-01 18:15:00,
2014-01-01 13:20:00,51.0,41.2,30.32,ENE,64,11.0,12.0,69,0.00,,---,0.00,VWS V14.01,2014-01-01 18:20:00,
2014-01-01 13:25:00,50.8,39.5,30.31,ENE,74,7.0,12.0,65,0.00,,---,0.00,VWS V14.01,2014-01-01 18:25:00,
2014-01-01 13:30:00,50.8,37.8,30.31,ENE,78,11.0,11.0,61,0.00,,---,0.00,VWS V14.01,2014-01-01 18:30:00,
2014-01-01 13:35:00,51.1,35.5,30.31,East,86,8.0,11.0,55,0.00,,---,0.00,VWS V14.01,2014-01-01 18:35:00,
2014-01-01 13:40:00,51.3,36.2,30.30,ENE,63,6.0,11.0,56,0.00,,---,0.00,VWS V14.01,2014-01-01 18:40:00,
2014-01-01 13:45:00,51.4,37.1,30.30,ENE,62,7.0,11.0,58,0.00,,---,0.00,VWS V14.01,2014-01-01 18:45:00,
2014-01-01 13:50:00,51.5,36.3,30.31,ENE,77,5.0,11.0,56,0.00,,---,0.00,VWS V14.01,2014-01-01 18:50:00,
2014-01-01 13:55:00,51.7,37.0,30.30,East,98,7.0,11.0,57,0.00,,---,0.00,VWS V14.01,2014-01-01 18:55:00,
2014-01-01 14:00:00,51.9,34.8,30.30,East,80,7.0,11.0,52,0.00,,---,0.00,VWS V14.01,2014-01-01 19:00:00,
2014-01-01 14:05:00,52.0,34.5,30.30,East,86,7.0,11.0,51,0.00,,---,0.00,VWS V14.01,2014-01-01 19:05:00,
2014-01-01 14:10:00,51.9,37.6,30.29,ENE,71,6.0,11.0,58,0.00,,---,0.00,VWS V14.01,2014-01-01 19:10:00,
2014-01-01 14:15:00,51.8,36.6,30.29,ENE,64,7.0,11.0,56,0.00,,---,0.00,VWS V14.01,2014-01-01 19:15:00,
2014-01-01 14:20:00,51.8,37.1,30.29,ENE,62,9.0,11.0,57,0.00,,---,0.00,VWS V14.01,2014-01-01 19:20:00,
2014-01-01 14:26:00,51.8,37.5,30.29,ENE,62,6.0,11.0,58,0.00,,---,0.00,VWS V14.01,2014-01-01 19:26:00,
2014-01-01 14:31:00,51.9,37.2,30.28,ENE,58,6.0,9.0,57,0.00,,---,0.00,VWS V14.01,2014-01-01 19:31:00,
2014-01-01 14:36:00,52.0,36.3,30.28,NE,54,5.0,11.0,55,0.00,,---,0.00,VWS V14.01,2014-01-01 19:36:00,
2014-01-01 14:41:00,52.2,35.1,30.27,East,81,7.0,12.0,52,0.00,,---,0.00,VWS V14.01,2014-01-01 19:41:00,
2014-01-01 14:46:00,52.4,35.8,30.27,East,84,9.0,13.0,53,0.00,,---,0.00,VWS V14.01,2014-01-01 19:46:00,
2014-01-01 14:51:00,52.5,36.8,30.27,East,89,5.0,13.0,55,0.00,,---,0.00,VWS V14.01,2014-01-01 19:51:00,
2014-01-01 14:56:00,52.6,36.9,30.27,East,85,7.0,13.0,55,0.00,,---,0.00,VWS V14.01,2014-01-01 19:56:00,
2014-01-01 15:01:00,52.7,37.5,30.27,East,88,6.0,11.0,56,0.00,,---,0.00,VWS V14.01,2014-01-01 20:01:00,
2014-01-01 15:06:00,52.8,37.5,30.27,East,86,6.0,13.0,56,0.00,,---,0.00,VWS V14.01,2014-01-01 20:06:00,
2014-01-01 15:11:00,52.8,38.5,30.27,East,92,11.0,13.0,58,0.00,,---,0.00,VWS V14.01,2014-01-01 20:11:00,
2014-01-01 15:16:00,52.9,39.0,30.27,East,92,5.0,13.0,59,0.00,,---,0.00,VWS V14.01,2014-01-01 20:16:00,
2014-01-01 15:21:00,52.8,40.2,30.26,ENE,69,6.0,13.0,62,0.00,,---,0.00,VWS V14.01,2014-01-01 20:21:00,
2014-01-01 15:26:00,52.8,40.6,30.26,East,80,6.0,13.0,63,0.00,,---,0.00,VWS V14.01,2014-01-01 20:26:00,
2014-01-01 15:31:00,52.7,39.6,30.26,East,84,5.0,11.0,61,0.00,,---,0.00,VWS V14.01,2014-01-01 20:31:00,
2014-01-01 15:37:00,52.8,40.6,30.26,NE,53,6.0,11.0,63,0.00,,---,0.00,VWS V14.01,2014-01-01 20:37:00,
2014-01-01 15:42:00,52.7,40.1,30.26,ENE,58,7.0,11.0,62,0.00,,---,0.00,VWS V14.01,2014-01-01 20:42:00,
2014-01-01 15:47:00,52.6,40.8,30.26,NE,55,5.0,11.0,64,0.00,,---,0.00,VWS V14.01,2014-01-01 20:47:00,
2014-01-01 15:52:00,52.6,40.0,30.26,ENE,58,6.0,11.0,62,0.00,,---,0.00,VWS V14.01,2014-01-01 20:52:00,
2014-01-01 15:57:00,52.7,40.9,30.26,NE,49,6.0,11.0,64,0.00,,---,0.00,VWS V14.01,2014-01-01 20:57:00,
2014-01-01 16:02:00,52.7,40.9,30.26,NE,53,5.0,7.0,64,0.00,,---,0.00,VWS V14.01,2014-01-01 21:02:00,
2014-01-01 16:07:00,52.7,41.3,30.26,ENE,66,5.0,7.0,65,0.00,,---,0.00,VWS V14.01,2014-01-01 21:07:00,
2014-01-01 16:12:00,52.7,41.7,30.26,NE,44,4.0,7.0,66,0.00,,---,0.00,VWS V14.01,2014-01-01 21:12:00,
2014-01-01 16:17:00,52.7,41.7,30.26,NE,38,3.0,7.0,66,0.00,,---,0.00,VWS V14.01,2014-01-01 21:17:00,
2014-01-01 16:22:00,52.7,41.3,30.26,NNE,33,4.0,7.0,65,0.00,,---,0.00,VWS V14.01,2014-01-01 21:22:00,
2014-01-01 16:27:00,52.6,42.3,30.26,NNE,32,4.0,5.0,68,0.00,,---,0.00,VWS V14.01,2014-01-01 21:27:00,
2014-01-01 16:32:00,52.6,42.7,30.26,NE,38,4.0,6.0,69,0.00,,---,0.00,VWS V14.01,2014-01-01 21:32:00,
2014-01-01 16:37:00,52.5,41.5,30.25,NE,48,4.0,6.0,66,0.00,,---,0.00,VWS V14.01,2014-01-01 21:37:00,
2014-01-01 16:43:00,52.4,41.8,30.25,NE,49,4.0,6.0,67,0.00,,---,0.00,VWS V14.01,2014-01-01 21:43:00,
2014-01-01 16:48:00,52.3,42.1,30.25,ENE,58,4.0,6.0,68,0.00,,---,0.00,VWS V14.01,2014-01-01 21:48:00,
2014-01-01 16:53:00,52.2,42.3,30.25,ENE,59,6.0,6.0,69,0.00,,---,0.00,VWS V14.01,2014-01-01 21:53:00,
2014-01-01 16:58:00,52.1,42.2,30.25,NE,38,5.0,6.0,69,0.00,,---,0.00,VWS V14.01,2014-01-01 21:58:00,
2014-01-01 17:03:00,51.9,42.4,30.25,NE,44,5.0,7.0,70,0.00,,---,0.00,VWS V14.01,2014-01-01 22:03:00,
2014-01-01 17:08:00,51.8,42.0,30.24,NE,55,6.0,7.0,69,0.00,,---,0.00,VWS V14.01,2014-01-01 22:08:00,
2014-01-01 17:13:00,51.7,41.9,30.24,NE,55,6.0,7.0,69,0.00,,---,0.00,VWS V14.01,2014-01-01 22:13:00,
2014-01-01 17:18:00,51.6,41.4,30.23,NE,53,6.0,7.0,68,0.00,,---,0.00,VWS V14.01,2014-01-01 22:18:00,
2014-01-01 17:23:00,51.5,42.4,30.23,ENE,63,6.0,7.0,71,0.00,,---,0.00,VWS V14.01,2014-01-01 22:23:00,
2014-01-01 17:28:00,51.5,41.7,30.23,NE,56,6.0,7.0,69,0.00,,---,0.00,VWS V14.01,2014-01-01 22:28:00,
2014-01-01 17:33:00,51.4,42.0,30.24,NE,39,5.0,9.0,70,0.00,,---,0.00,VWS V14.01,2014-01-01 22:33:00,
2014-01-01 17:38:00,51.4,42.3,30.24,NNE,23,7.0,9.0,71,0.00,,---,0.00,VWS V14.01,2014-01-01 22:38:00,
2014-01-01 17:43:00,51.2,41.8,30.25,NNE,18,5.0,9.0,70,0.00,,---,0.00,VWS V14.01,2014-01-01 22:43:00,
2014-01-01 17:49:00,51.2,41.8,30.25,NNE,17,5.0,9.0,70,0.00,,---,0.00,VWS V14.01,2014-01-01 22:49:00,
2014-01-01 17:54:00,51.0,40.8,30.25,NNE,15,5.0,9.0,68,0.00,,---,0.00,VWS V14.01,2014-01-01 22:54:00,
2014-01-01 17:59:00,50.9,40.7,30.25,North,9,6.0,7.0,68,0.00,,---,0.00,VWS V14.01,2014-01-01 22:59:00,
2014-01-01 18:04:00,50.9,41.5,30.25,North,9,6.0,7.0,70,0.00,,---,0.00,VWS V14.01,2014-01-01 23:04:00,
2014-01-01 18:09:00,50.7,40.9,30.24,NNE,32,7.0,7.0,69,0.00,,---,0.00,VWS V14.01,2014-01-01 23:09:00,
2014-01-01 18:14:00,50.6,40.4,30.25,North,5,6.0,9.0,68,0.00,,---,0.00,VWS V14.01,2014-01-01 23:14:00,
2014-01-01 18:19:00,50.6,40.8,30.24,North,9,6.0,9.0,69,0.00,,---,0.00,VWS V14.01,2014-01-01 23:19:00,
2014-01-01 18:24:00,50.6,41.6,30.25,North,9,5.0,9.0,71,0.00,,---,0.00,VWS V14.01,2014-01-01 23:24:00,
2014-01-01 18:29:00,50.5,41.1,30.25,North,5,5.0,6.0,70,0.00,,---,0.00,VWS V14.01,2014-01-01 23:29:00,
2014-01-01 18:34:00,50.4,41.4,30.25,NNE,16,5.0,7.0,71,0.00,,---,0.00,VWS V14.01,2014-01-01 23:34:00,
2014-01-01 18:39:00,50.4,41.4,30.25,NNE,30,4.0,7.0,71,0.00,,---,0.00,VWS V14.01,2014-01-01 23:39:00,
2014-01-01 18:44:00,50.3,40.9,30.24,NE,47,6.0,7.0,70,0.00,,---,0.00,VWS V14.01,2014-01-01 23:44:00,
2014-01-01 18:50:00,50.4,41.4,30.24,NE,49,6.0,7.0,71,0.00,,---,0.00,VWS V14.01,2014-01-01 23:50:00,
2014-01-01 18:55:00,50.2,41.5,30.24,NE,40,5.0,7.0,72,0.00,,---,0.00,VWS V14.01,2014-01-01 23:55:00,
2014-01-01 19:00:00,50.1,41.8,30.24,NNE,33,5.0,6.0,73,0.00,,---,0.00,VWS V14.01,2014-01-02 00:00:00,
2014-01-01 19:05:00,50.0,42.4,30.24,NNE,33,3.0,6.0,75,0.00,,---,0.00,VWS V14.01,2014-01-02 00:05:00,
2014-01-01 19:10:00,49.9,42.7,30.24,NNE,26,5.0,6.0,76,0.01,,---,0.01,VWS V14.01,2014-01-02 00:10:00,
2014-01-01 19:15:00,49.7,42.5,30.24,NNE,24,4.0,6.0,76,0.01,,---,0.01,VWS V14.01,2014-01-02 00:15:00,
2014-01-01 19:20:00,49.5,42.6,30.24,NNE,23,2.0,6.0,77,0.01,,---,0.01,VWS V14.01,2014-01-02 00:20:00,
2014-01-01 19:25:00,49.2,42.6,30.24,NNE,23,4.0,6.0,78,0.01,,---,0.01,VWS V14.01,2014-01-02 00:25:00,
2014-01-01 19:30:00,49.1,42.5,30.24,NNE,28,3.0,5.0,78,0.01,,---,0.01,VWS V14.01,2014-01-02 00:30:00,
2014-01-01 19:35:00,49.1,42.5,30.24,NE,36,2.0,5.0,78,0.01,,---,0.01,VWS V14.01,2014-01-02 00:35:00,
2014-01-01 19:40:00,49.1,42.9,30.24,NE,41,4.0,5.0,79,0.01,,---,0.01,VWS V14.01,2014-01-02 00:40:00,
2014-01-01 19:45:00,49.1,42.9,30.24,NNE,29,5.0,6.0,79,0.01,,---,0.01,VWS V14.01,2014-01-02 00:45:00,
2014-01-01 19:50:00,49.1,42.5,30.24,NNE,32,4.0,6.0,78,0.01,,---,0.01,VWS V14.01,2014-01-02 00:50:00,
2014-01-01 19:56:00,49.1,42.9,30.24,NNE,31,3.0,6.0,79,0.01,,---,0.01,VWS V14.01,2014-01-02 00:56:00,
2014-01-01 20:01:00,49.1,42.5,30.24,NNE,33,4.0,6.0,78,0.01,,---,0.01,VWS V14.01,2014-01-02 01:01:00,
2014-01-01 20:06:00,49.1,42.9,30.23,NNE,31,3.0,6.0,79,0.01,,---,0.01,VWS V14.01,2014-01-02 01:06:00,
2014-01-01 20:11:00,49.2,43.3,30.23,NE,38,4.0,6.0,80,0.01,,---,0.01,VWS V14.01,2014-01-02 01:11:00,
2014-01-01 20:16:00,49.2,43.0,30.23,NNE,28,3.0,6.0,79,0.01,,---,0.01,VWS V14.01,2014-01-02 01:16:00,
2014-01-01 20:21:00,49.0,42.5,30.23,NNE,23,3.0,6.0,78,0.01,,---,0.01,VWS V14.01,2014-01-02 01:21:00,
2014-01-01 20:26:00,49.0,42.8,30.23,NNE,22,2.0,6.0,79,0.01,,---,0.01,VWS V14.01,2014-01-02 01:26:00,
2014-01-01 20:31:00,49.0,43.4,30.23,NNE,22,0.0,3.0,81,0.00,,---,0.01,VWS V14.01,2014-01-02 01:31:00,
2014-01-01 20:36:00,49.0,42.8,30.22,NNE,22,4.0,4.0,79,0.00,,---,0.01,VWS V14.01,2014-01-02 01:36:00,
2014-01-01 20:41:00,49.1,42.9,30.22,NE,51,1.0,4.0,79,0.00,,---,0.01,VWS V14.01,2014-01-02 01:41:00,
2014-01-01 20:46:00,49.2,43.3,30.21,NE,51,2.0,4.0,80,0.00,,---,0.01,VWS V14.01,2014-01-02 01:46:00,
2014-01-01 20:51:00,49.4,43.5,30.22,NNE,31,4.0,4.0,80,0.00,,---,0.01,VWS V14.01,2014-01-02 01:51:00,
2014-01-01 20:56:00,49.3,43.4,30.21,NE,34,4.0,5.0,80,0.00,,---,0.01,VWS V14.01,2014-01-02 01:56:00,
2014-01-01 21:02:00,49.4,43.2,30.20,NE,38,3.0,5.0,79,0.00,,---,0.01,VWS V14.01,2014-01-02 02:02:00,
2014-01-01 21:07:00,49.3,43.4,30.20,NE,42,2.0,5.0,80,0.00,,---,0.01,VWS V14.01,2014-01-02 02:07:00,
2014-01-01 21:12:00,49.2,43.6,30.20,NE,42,3.0,5.0,81,0.00,,---,0.01,VWS V14.01,2014-01-02 02:12:00,
2014-01-01 21:17:00,49.2,43.3,30.20,ENE,65,2.0,5.0,80,0.00,,---,0.01,VWS V14.01,2014-01-02 02:17:00,
2014-01-01 21:22:00,49.1,43.5,30.20,ENE,67,3.0,5.0,81,0.00,,---,0.01,VWS V14.01,2014-01-02 02:22:00,
2014-01-01 21:27:00,49.2,43.6,30.20,ENE,67,3.0,5.0,81,0.00,,---,0.01,VWS V14.01,2014-01-02 02:27:00,
2014-01-01 21:32:00,49.2,43.6,30.20,North,9,5.0,6.0,81,0.01,,---,0.02,VWS V14.01,2014-01-02 02:32:00,
2014-01-01 21:37:00,49.0,43.8,30.20,NNE,26,4.0,6.0,82,0.01,,---,0.02,VWS V14.01,2014-01-02 02:37:00,
2014-01-01 21:42:00,48.7,44.1,30.20,NNE,20,5.0,6.0,84,0.01,,---,0.02,VWS V14.01,2014-01-02 02:42:00,
2014-01-01 21:47:00,48.3,44.0,30.20,NNE,19,5.0,6.0,85,0.01,,---,0.02,VWS V14.01,2014-01-02 02:47:00,
2014-01-01 21:52:00,48.0,44.0,30.19,NNE,19,4.0,6.0,86,0.01,,---,0.02,VWS V14.01,2014-01-02 02:52:00,
2014-01-01 21:57:00,47.9,43.9,30.19,NNE,13,5.0,5.0,86,0.01,,---,0.02,VWS V14.01,2014-01-02 02:57:00,
2014-01-01 22:02:00,47.8,44.1,30.18,NNE,18,2.0,6.0,87,0.01,,---,0.02,VWS V14.01,2014-01-02 03:02:00,
2014-01-01 22:08:00,47.8,44.1,30.18,NNE,27,5.0,6.0,87,0.01,,---,0.02,VWS V14.01,2014-01-02 03:08:00,
2014-01-01 22:13:00,47.9,44.2,30.18,North,5,3.0,6.0,87,0.01,,---,0.02,VWS V14.01,2014-01-02 03:13:00,
2014-01-01 22:18:00,47.9,44.5,30.18,NNE,28,6.0,7.0,88,0.01,,---,0.02,VWS V14.01,2014-01-02 03:18:00,
2014-01-01 22:23:00,47.9,44.5,30.17,NE,43,4.0,7.0,88,0.01,,---,0.02,VWS V14.01,2014-01-02 03:23:00,
2014-01-01 22:28:00,47.9,44.5,30.17,NE,45,5.0,5.0,88,0.01,,---,0.02,VWS V14.01,2014-01-02 03:28:00,
2014-01-01 22:33:00,47.9,44.5,30.17,NE,46,4.0,6.0,88,0.01,,---,0.02,VWS V14.01,2014-01-02 03:33:00,
2014-01-01 22:38:00,48.0,44.6,30.17,NE,41,4.0,7.0,88,0.01,,---,0.02,VWS V14.01,2014-01-02 03:38:00,
2014-01-01 22:43:00,48.0,44.6,30.17,NNE,30,6.0,7.0,88,0.01,,---,0.02,VWS V14.01,2014-01-02 03:43:00,
2014-01-01 22:48:00,48.0,44.9,30.17,NNE,22,4.0,7.0,89,0.01,,---,0.02,VWS V14.01,2014-01-02 03:48:00,
2014-01-01 22:53:00,47.8,44.7,30.17,NNE,15,6.0,7.0,89,0.01,,---,0.02,VWS V14.01,2014-01-02 03:53:00,
2014-01-01 22:58:00,47.9,44.5,30.17,NNE,17,6.0,10.0,88,0.00,,---,0.02,VWS V14.01,2014-01-02 03:58:00,
2014-01-01 23:03:00,47.9,44.5,30.17,NNE,13,5.0,10.0,88,0.00,,---,0.02,VWS V14.01,2014-01-02 04:03:00,
2014-01-01 23:08:00,47.9,44.8,30.17,North,5,8.0,10.0,89,0.00,,---,0.02,VWS V14.01,2014-01-02 04:08:00,
2014-01-01 23:13:00,47.8,44.7,30.17,North,9,6.0,10.0,89,0.00,,---,0.02,VWS V14.01,2014-01-02 04:13:00,
2014-01-01 23:18:00,47.6,44.8,30.17,North,5,6.0,10.0,90,0.00,,---,0.02,VWS V14.01,2014-01-02 04:18:00,
2014-01-01 23:24:00,47.5,44.7,30.17,NNE,15,7.0,10.0,90,0.00,,---,0.02,VWS V14.01,2014-01-02 04:24:00,
2014-01-01 23:29:00,47.4,44.6,30.16,NNE,26,3.0,5.0,90,0.00,,---,0.02,VWS V14.01,2014-01-02 04:29:00,
2014-01-01 23:34:00,47.3,44.5,30.16,North,11,5.0,7.0,90,0.00,,---,0.02,VWS V14.01,2014-01-02 04:34:00,
2014-01-01 23:39:00,47.3,44.8,30.16,North,350,7.0,7.0,91,0.00,,---,0.02,VWS V14.01,2014-01-02 04:39:00,
2014-01-01 23:44:00,47.3,44.8,30.15,NNE,13,6.0,9.0,91,0.00,,---,0.02,VWS V14.01,2014-01-02 04:44:00,
2014-01-01 23:49:00,47.3,44.8,30.15,North,5,7.0,10.0,91,0.00,,---,0.02,VWS V14.01,2014-01-02 04:49:00,
2014-01-01 23:54:00,47.4,44.9,30.15,North,351,7.0,10.0,91,0.00,,---,0.02,VWS V14.01,2014-01-02 04:54:00,
2014-01-01 23:59:00,47.3,44.5,30.15,North,360,7.0,9.0,90,0.00,,---,0.00,VWS V14.01,2014-01-02 04:59:00,